COSMOS 1275 DEB, 42152

Orbit data source: Space-Track

COSMOS 1275 DEB, 42152 is space debris in LEO originally from a launch on Thu, 04 Jun 1981 UTC launched from the Plesetsk Missile And Space Complex (PKMTR). Debris objects in space refer to the collection of defunct objects orbiting the Earth. Examples of debris include non-operational satellites, rocket bodies, and fragments generated from explosions, collisions, or faulty payload assembly.

Loading next visibility...
Identifier
42152, 1981-053RQ
Orbit
LEO
Country
Flag of CISCIS
Related business
Manufacturer
Unknown
Mission
Spacecraft
Bus & Motor
Unknown
Mass
Unknown
Launch date (UTC)
1981-06-04 (45 years ago)
Launch vehicle
Unknown
Launch site
Plesetsk Missile And Space Complex (PKMTR)
Object type
Payload
Rocket body
Debris
Shape & HBR
Unknown shape, 0.1 m
Radar Cross Section
Small (<0.1 m²)

Expand to show TLE details & history
Last TLE update: 1 month ago

TLE from 1 month ago
0 COSMOS 1275 DEB
1 42152U 81053RQ  26237.12254326  .00001372  00000-0  85086-3 0  9999
2 42152  83.1202  23.1692 0055626 342.2573  17.6655 14.03711881650549
Epoch: 2026-08-25T02:56Z
TLE epoch observation values (Epoch: 2026-08-25T02:56:27.737Z)
Latitude
-0.00005°
Longitude
5.6592°
Altitude
845.452 km
Speed
7.45 km/s
True Right ascension
01h 32m 40s
True Declination
0° 00' 00"
Sunlit
Object was in full shadow at epoch
Visualization orbit readout
Latitude
Unknown
Longitude
Unknown
Altitude
Unknown
Speed
Unknown
Apparent Right ascension
Unknown
Apparent Declination
Unknown
Sunlit
N/A
Visualization observer readout
Local Sidereal Time
08:17:16
Azimuth
Unknown
Elevation
Unknown
Doppler factor
Unknown
Orbital elements
Apogee altitude
918.436 km
Perigee altitude
837.709 km
Semi-major axis
7,256.209 km
Eccentricity
0.00556
Inclination
83.1202°
RAAN
23.1692°
Arg. of periapsis
342.2573°
True anomaly
17.86022°
Mean anomaly
17.6655°
Eccentric anomaly
17.76273°
Mean motion
3.51139 °/min
Orbital period
102.52 mins
BSTAR
0.00085086
Loading maneuver chart data...
Computing Atmospheric mass density...

Documentation

Showing up to 5 results
|